sat.trackr.live / text

‹ back to catalog

STARLINK-30844

NORAD 58403 · 2023-180B

PAYLOAD ACTIVE UNKNOWN

§ Identity

Operator
Country
US
Launch date
2023-11-22
Launch site
AFETR
Launch vehicle
Mass (kg)
RCS (m²)

Purposes: comms

External: N2YO · Heavens-Above · Gunter

§ Orbital elements

Epoch: 2026-09-20T10:01:13.023840Z

Period
94.27 min
Inclination
43.0066°
Eccentricity
0.0002154
Mean motion
15.27576510 rev/d
Perigee alt
481.6 km
Apogee alt
484.5 km
Semi-major
6,861.2 km
B*
-1.7259e-6
RAAN
33.1301°
Arg perigee
268.5894°
Mean anomaly
91.4711°
Rev number
15,728

§ Raw data

STARLINK-308441 58403U 23180B   26263.41751185 -.00000310  00000+0 -17259-5 0  99992 58403  43.0066  33.1301 0002154 268.5894  91.4711 15.27576510157281

JSON: /api/v1/satellites/58403 · /tle

For live sub-satellite position, see the globe view (requires WebGL).

§ Visibility from observer

Set your observer location to see the next 7 days of passes ≥ 10°. The values pass through the URL so the page stays shareable.

No JS? Fill the form by hand. The geolocation button needs JavaScript.